Flag for U.S.A. Weather past 2 weeks in Pasadena, California, U.S.A.

Now
67 °F

Clear.


Feels Like: 67 °F
Forecast: 61 / 84 °F
Wind: 5 mph from Southeast

Location: Burbank-Glendale-Pasadena Airport

Current Time: Aug 21, 2014 at 4:02:06 AM

Latest Report: Aug 21, 2014 at 2:53 AM


Visibility: 10 mi

Pressure: 29.88 "Hg

Humidity: 76%

Dew point: 59 °F

Location of PasadenaLocation

Historic Weather in Pasadena — Graph

°F

Pasadena temperature yesterday

Maximum temperature yesterday: 82 °F (at 1:53 PM)
Minimum temperature yesterday: 66 °F (at 6:53 AM)
Average temperature yesterday: 72 °F

Past Weeks' High & Low Weather Summary

 TemperatureHumidityPressure
High94 °F (Aug 15, 2:53 PM)90% (Aug 10, 6:53 AM)30.03 "Hg (Aug 10, 6:53 AM)
Low61 °F (Aug 6, 5:53 AM)17% (Aug 16, 2:53 PM)29.74 "Hg (Aug 18, 3:53 PM)
Average74 °F59%29.90 "Hg
* Reported Aug 6 2:53 AM — Aug 21 2:53 AM, Pasadena, Weather by CustomWeather, © 2014

Note: Actual official high and low records may vary slightly from our data, if they occured in-between our weather recording intervals... More about our weather records

Advertising

Pasadena weather history for previous 24 hours

 ConditionsComfort  
Time TempWeatherWind HumidityBarometerVisibility
2:53 AM
Aug 21
67 °FClear.5 mph76%29.88 "Hg10 mi
1:53 AM67 °FClear.6 mph76%29.88 "Hg10 mi
12:53 AM68 °FClear.3 mph73%29.88 "Hg10 mi
11:53 PM
Aug 20
69 °FClear.No wind68%29.89 "Hg10 mi
10:53 PM69 °FClear.3 mph68%29.89 "Hg10 mi
9:53 PM70 °FClear.3 mph64%29.88 "Hg10 mi
8:53 PM70 °FClear.7 mph66%29.87 "Hg10 mi
7:53 PM72 °FSunny.8 mph61%29.85 "Hg10 mi
6:53 PM76 °FSunny.9 mph52%29.84 "Hg10 mi
5:53 PM79 °FSunny.10 mph45%29.83 "Hg10 mi
4:53 PM80 °FSunny.8 mph41%29.83 "Hg10 mi
3:53 PM80 °FSunny.9 mph44%29.84 "Hg10 mi
2:53 PM80 °FSunny.6 mph44%29.86 "Hg10 mi
1:53 PM82 °FSunny.13 mph40%29.86 "Hg10 mi
12:53 PM80 °FSunny.8 mph39%29.88 "Hg10 mi
11:53 AM78 °FSunny.8 mph43%29.90 "Hg10 mi
10:53 AM74 °FSunny.8 mph53%29.91 "Hg10 mi
10:00 AM72 °FScattered clouds.No wind61%29.95 "Hg10 mi
8:53 AM68 °FOvercast.No wind70%29.91 "Hg10 mi
7:53 AM67 °FOvercast.3 mph73%29.89 "Hg10 mi
6:53 AM66 °FOvercast.6 mph75%29.89 "Hg10 mi
5:53 AM67 °FOvercast.6 mph73%29.87 "Hg10 mi
4:53 AM67 °FPassing clouds.7 mph73%29.85 "Hg10 mi
Weather by CustomWeather, © 2014

See weather overviewHow to use our weather pages